Tiempo cada hora Muraveynik

Hoy, 29 Octubre, Jueves

Tiempo Temperatura Precipitaciones Viento Presión Humedad
00:00 +7°C° 0 mm 6 mps 760 mmHg 55%
01:00 +7°C° 0 mm 6 mps 760 mmHg 58%
02:00 +6°C° 0 mm 5 mps 760 mmHg 61%
03:00 +5°C° 0 mm 5 mps 759 mmHg 63%
04:00 +5°C° 0 mm 5 mps 759 mmHg 64%
05:00 +4°C° 0 mm 6 mps 759 mmHg 64%
06:00 +4°C° 0 mm 6 mps 759 mmHg 64%
07:00 +5°C° 0 mm 6 mps 759 mmHg 61%
08:00 +7°C° 0 mm 6 mps 759 mmHg 59%
09:00 +8°C° 0 mm 7 mps 758 mmHg 57%
10:00 +9°C° 0 mm 7 mps 758 mmHg 56%
11:00 +11°C° 0 mm 7 mps 758 mmHg 54%
12:00 +12°C° 0 mm 7 mps 758 mmHg 53%
13:00 +14°C° 0 mm 7 mps 757 mmHg 54%
14:00 +15°C° 0 mm 6 mps 757 mmHg 56%
15:00 +16°C° 0 mm 6 mps 756 mmHg 58%
16:00 +15°C° 0 mm 6 mps 756 mmHg 64%
17:00 +14°C° 0 mm 5 mps 756 mmHg 70%
18:00 +13°C° 0 mm 5 mps 756 mmHg 77%
19:00 +13°C° 0 mm 5 mps 756 mmHg 78%
20:00 +13°C° 0 mm 5 mps 756 mmHg 80%
21:00 +11°C° 0 mm 6 mps 755 mmHg 81%
22:00 +11°C° 0 mm 6 mps 755 mmHg 83%
23:00 +11°C° 0 mm 6 mps 755 mmHg 85%

Mañana, 30 Octubre, Viernes

Tiempo Temperatura Precipitaciones Viento Presión Humedad
00:00 +11°C° 0 mm 6 mps 754 mmHg 87%
01:00 +10°C° 0 mm 5 mps 754 mmHg 88%
02:00 +10°C° 0 mm 5 mps 754 mmHg 89%
03:00 +11°C° 0 mm 4 mps 754 mmHg 90%
04:00 +11°C° 0.2 mm 4 mps 754 mmHg 90%
05:00 +10°C° 0.2 mm 5 mps 754 mmHg 91%
06:00 +12°C° 0.2 mm 5 mps 754 mmHg 91%
07:00 +12°C° 0.3 mm 5 mps 754 mmHg 91%
08:00 +12°C° 0.3 mm 5 mps 754 mmHg 91%
09:00 +12°C° 0.3 mm 5 mps 754 mmHg 91%
10:00 +13°C° 0.2 mm 5 mps 754 mmHg 88%
11:00 +14°C° 0.2 mm 5 mps 754 mmHg 85%
12:00 +15°C° 0.2 mm 5 mps 754 mmHg 82%
13:00 +16°C° 0.1 mm 5 mps 754 mmHg 78%
14:00 +18°C° 0.1 mm 4 mps 754 mmHg 74%
15:00 +19°C° 0.1 mm 4 mps 754 mmHg 70%
16:00 +17°C° 0.2 mm 3 mps 754 mmHg 76%
17:00 +16°C° 0.2 mm 3 mps 754 mmHg 82%
18:00 +14°C° 0.2 mm 3 mps 753 mmHg 89%
19:00 +14°C° 0.4 mm 3 mps 753 mmHg 89%
20:00 +14°C° 0.4 mm 3 mps 753 mmHg 90%
21:00 +13°C° 0.4 mm 3 mps 753 mmHg 90%
22:00 +13°C° 0 mm 3 mps 753 mmHg 91%
23:00 +14°C° 0 mm 2 mps 753 mmHg 91%

Pasado mañana, 31 Octubre, Sábado

Tiempo Temperatura Precipitaciones Viento Presión Humedad
00:00 +14°C° 0 mm 2 mps 753 mmHg 92%
01:00 +13°C° 0 mm 2 mps 753 mmHg 92%
02:00 +13°C° 0 mm 2 mps 753 mmHg 93%
03:00 +13°C° 0 mm 2 mps 753 mmHg 93%
04:00 +13°C° 0 mm 2 mps 753 mmHg 93%
05:00 +12°C° 0 mm 1 mps 753 mmHg 93%
06:00 +12°C° 0 mm 1 mps 753 mmHg 93%
07:00 +13°C° 0 mm 1 mps 753 mmHg 88%
08:00 +14°C° 0 mm 1 mps 753 mmHg 84%
09:00 +14°C° 0 mm 0 mps 753 mmHg 80%
10:00 +16°C° 0 mm 1 mps 753 mmHg 73%
11:00 +19°C° 0 mm 1 mps 753 mmHg 66%
12:00 +20°C° 0 mm 1 mps 753 mmHg 59%
13:00 +18°C° 0.6 mm 2 mps 753 mmHg 66%
14:00 +17°C° 0.6 mm 2 mps 753 mmHg 74%
15:00 +17°C° 0.6 mm 2 mps 753 mmHg 81%
16:00 +16°C° 0.5 mm 2 mps 753 mmHg 84%
17:00 +16°C° 0.5 mm 2 mps 753 mmHg 86%
18:00 +15°C° 0.5 mm 2 mps 753 mmHg 89%
19:00 +16°C° 0.3 mm 3 mps 753 mmHg 87%
20:00 +15°C° 0.3 mm 4 mps 754 mmHg 84%
21:00 +15°C° 0.3 mm 5 mps 754 mmHg 82%
22:00 +15°C° 0.2 mm 5 mps 754 mmHg 80%
23:00 +15°C° 0.2 mm 6 mps 754 mmHg 79%

1 Noviembre, Domingo

Tiempo Temperatura Precipitaciones Viento Presión Humedad
00:00 +14°C° 0.2 mm 6 mps 754 mmHg 77%
01:00 +14°C° 0 mm 6 mps 754 mmHg 78%
02:00 +14°C° 0 mm 5 mps 754 mmHg 79%
03:00 +13°C° 0 mm 5 mps 754 mmHg 80%
04:00 +13°C° 0 mm 5 mps 754 mmHg 81%
05:00 +13°C° 0 mm 5 mps 754 mmHg 81%
06:00 +13°C° 0 mm 4 mps 754 mmHg 82%
07:00 +13°C° 0 mm 4 mps 755 mmHg 81%
08:00 +13°C° 0 mm 4 mps 755 mmHg 80%
09:00 +14°C° 0 mm 4 mps 755 mmHg 80%
10:00 +13°C° 0.6 mm 4 mps 756 mmHg 82%
11:00 +13°C° 0.6 mm 4 mps 756 mmHg 84%
12:00 +13°C° 0.6 mm 4 mps 757 mmHg 85%
13:00 +13°C° 0.7 mm 3 mps 757 mmHg 86%
14:00 +14°C° 0.7 mm 2 mps 757 mmHg 87%
15:00 +14°C° 0.7 mm 2 mps 757 mmHg 87%
16:00 +13°C° 0 mm 2 mps 758 mmHg 88%
17:00 +13°C° 0 mm 1 mps 758 mmHg 89%
18:00 +12°C° 0 mm 1 mps 758 mmHg 89%
19:00 +12°C° 0 mm 1 mps 758 mmHg 90%
20:00 +12°C° 0 mm 1 mps 759 mmHg 91%
21:00 +11°C° 0 mm 1 mps 759 mmHg 91%
22:00 +11°C° 0 mm 1 mps 759 mmHg 91%
23:00 +11°C° 0 mm 1 mps 760 mmHg 92%

2 Noviembre, Lunes

Tiempo Temperatura Precipitaciones Viento Presión Humedad
00:00 +11°C° 0 mm 1 mps 760 mmHg 92%
01:00 +10°C° 0 mm 2 mps 760 mmHg 92%
02:00 +10°C° 0 mm 2 mps 760 mmHg 92%
03:00 +10°C° 0 mm 2 mps 760 mmHg 91%
04:00 +10°C° 0 mm 3 mps 760 mmHg 84%
05:00 +9°C° 0 mm 3 mps 760 mmHg 77%
06:00 +9°C° 0 mm 3 mps 760 mmHg 69%
07:00 +10°C° 0 mm 3 mps 761 mmHg 62%
08:00 +11°C° 0 mm 4 mps 761 mmHg 54%
09:00 +11°C° 0 mm 4 mps 761 mmHg 46%
10:00 +13°C° 0 mm 4 mps 761 mmHg 43%
11:00 +14°C° 0 mm 4 mps 762 mmHg 40%
12:00 +16°C° 0 mm 5 mps 762 mmHg 37%
13:00 +16°C° 0 mm 5 mps 762 mmHg 36%
14:00 +16°C° 0 mm 5 mps 762 mmHg 35%
15:00 +16°C° 0 mm 5 mps 761 mmHg 34%
16:00 +15°C° 0 mm 5 mps 762 mmHg 37%
17:00 +14°C° 0 mm 4 mps 762 mmHg 40%
18:00 +13°C° 0 mm 4 mps 762 mmHg 44%
19:00 +12°C° 0 mm 4 mps 762 mmHg 44%
20:00 +12°C° 0 mm 4 mps 762 mmHg 44%
21:00 +12°C° 0 mm 4 mps 762 mmHg 45%
22:00 +12°C° 0 mm 4 mps 763 mmHg 45%
23:00 +12°C° 0 mm 5 mps 763 mmHg 45%

3 Noviembre, Martes

Tiempo Temperatura Precipitaciones Viento Presión Humedad
00:00 +10°C° 0 mm 5 mps 763 mmHg 45%
01:00 +10°C° 0 mm 5 mps 763 mmHg 47%
02:00 +10°C° 0 mm 4 mps 763 mmHg 48%
03:00 +10°C° 0 mm 4 mps 764 mmHg 49%
04:00 +10°C° 0 mm 4 mps 764 mmHg 51%
05:00 +8°C° 0 mm 4 mps 764 mmHg 52%
06:00 +8°C° 0 mm 5 mps 764 mmHg 54%
07:00 +9°C° 0 mm 5 mps 764 mmHg 51%
08:00 +10°C° 0 mm 6 mps 764 mmHg 48%
09:00 +10°C° 0 mm 7 mps 765 mmHg 46%
10:00 +12°C° 0 mm 7 mps 765 mmHg 41%
11:00 +15°C° 0 mm 7 mps 765 mmHg 37%
12:00 +16°C° 0 mm 7 mps 765 mmHg 33%
13:00 +17°C° 0 mm 7 mps 764 mmHg 32%
14:00 +17°C° 0 mm 8 mps 764 mmHg 31%
15:00 +17°C° 0 mm 8 mps 764 mmHg 31%
16:00 +16°C° 0 mm 7 mps 764 mmHg 33%
17:00 +15°C° 0 mm 7 mps 764 mmHg 35%
18:00 +14°C° 0 mm 7 mps 764 mmHg 37%
19:00 +14°C° 0 mm 7 mps 764 mmHg 37%
20:00 +14°C° 0 mm 7 mps 764 mmHg 38%
21:00 +12°C° 0 mm 7 mps 764 mmHg 38%
22:00 +12°C° 0 mm 7 mps 764 mmHg 38%
23:00 +12°C° 0 mm 7 mps 764 mmHg 39%
Mostrar más

Necesitamos Su Consentimiento

Meteoprog y nuestros Proveedores de Servicios pueden almacenar y acceder a sus datos personales como cookies, identificadores de dispositivo u otras tecnologías similares de su dispositivo y procesar dichos datos para personalizar contenido y anuncios, además de ofrecer funciones de redes sociales y analizar el tráfico.

  • Almacenar y/o acceder a información en su dispositivo

    Se puede almacenar o acceder a cookies, identificadores de dispositivo u otra información de su dispositivo para los fines anteriormente indicados.

  • Anuncios y contenido personalizados, medición de anuncios y contenido, percepciones del público, y desarrollo de productos

    Los anuncios y el contenido pueden personalizarse en base a su perfil. Se pueden añadir más datos para personalizar mejor los anuncios y contenidos. Se puede medir el rendimiento de los anuncios y contenidos. Se puede obtener la percepción sobre el público que ha visto los anuncios y contenidos. Dichos datos pueden usarse para desarrollar o mejorar la experiencia del usuario, sistemas y software.

Al hacer clic en ‘Estoy De Acuerdo’ usted permitirá el uso de las cookies, identificadores de dispositivo, balizas web u otras tecnologías similares indicadas. Su configuración puede cambiarse desde el navegador de su dispositivo.

Para ciertos fines, los intereses legítimos pueden ser considerados por encima del consentimiento. Puede leer más sobre ello en nuestra Política de Privacidad y Cookies.